Location: Camerons Lookout
(40.9833°S, 175.9333°E)
Time: 19:24:31
(UTC+00:00)

Cosmos 1697 Rocket - Pass Details

Date: 14 January 2026
Orbit: 830 x 844 km, 71.0° (Epoch: 13 February)

Event Time Altitude Azimuth Distance (km) Brightness Sun altitude
Exits shadow 10:24:25 46° 21° (NNE) 1,126 2.9 -21.7°
Maximum altitude 10:25:47 59° 71° (ENE) 977 2.7 -21.8°
Drops below altitude 10° 10:31:22 10° 149° (SSE) 2,482 5.5 -22.4°
Sets 10:33:52 0° 152° (SSE) 3,421 6.3 -22.6°
